Staples, MN

12:35 PM CDT on July 22, 2017 (GMT -0500)
Staples Municipal

Weather History for KSAZ - December, 2013

Change the Weather History Date:

Tuesday, December 3, 2013

  Actual Average Record
Temperature  
Mean Temperature 28 °F -  
Max Temperature 30 °F 29 °F 51 °F (1998)
Min Temperature 26 °F 15 °F -9 °F (2010)
Degree Days  
Heating Degree Days 37    
Moisture  
Dew Point 28 °F    
Average Humidity 99    
Maximum Humidity 100    
Minimum Humidity 93    
Precipitation  
Precipitation 0.00 in - - ()
Sea Level Pressure  
Sea Level Pressure 29.71 in    
Wind  
Wind Speed 3 mph (ENE)    
Max Wind Speed 8 mph    
Max Gust Speed -    
Visibility 4 miles    
Events Snow    
Averages and records for this station are not official NWS values.
T = Trace of Precipitation, MM = Missing Value Source: NWS Daily Summary

Daily Weather History Graph

Daily Weather History Graph

Search for Another Location

Airport or City:

Trip Planner

Search our weather history database for the weather conditions in past years. The results will help you decide how hot, cold, wet, or windy it might be!

Date:

Astronomy

Dec. 03, 2013 Rise Set
Actual Time 7:44 AM CST 4:33 PM CST
Civil Twilight 7:10 AM CST 5:07 PM CST
Nautical Twilight 6:32 AM CST 5:45 PM CST
Astronomical Twilight 5:56 AM CST 6:21 PM CST
Moon 8:13 AM CST (12/3) 5:39 PM CST (12/3)
Length of Visible Light 9h 57m
Length of Day
8h 48m
New Moon, 1% of the Moon is Illuminated
Dec 3
New Moon
Dec 9
First Quarter
Dec 17
Full
Dec 25
Last Quarter
Jan 1
New

Hourly Weather History & Observations

Time (CST) Temp. Windchill Dew Point Humidity Pressure Visibility Wind Dir Wind Speed Gust Speed Precip Events Conditions
12:14 AM 30.2 °F - 30.2 °F 100% 29.60 in 3.0 mi Calm Calm - N/A Snow Light Snow
12:33 AM 30.2 °F - 30.2 °F 100% 29.60 in 3.0 mi Calm Calm - N/A   Overcast
12:53 AM 30.2 °F - 30.2 °F 100% 29.60 in 3.0 mi Calm Calm - N/A   Overcast
1:13 AM 30.2 °F 25.4 °F 30.2 °F 100% 29.60 in 3.0 mi NE 4.6 mph - N/A   Overcast
1:33 AM 30.2 °F 25.4 °F 30.2 °F 100% 29.60 in 3.0 mi NE 4.6 mph - N/A   Overcast
1:54 AM 30.2 °F - 30.2 °F 100% 29.61 in 4.0 mi Calm Calm - N/A   Overcast
2:13 AM 30.2 °F 26.7 °F 28.4 °F 93% 29.62 in 4.0 mi NNE 3.5 mph - N/A   Overcast
2:33 AM 30.2 °F 25.4 °F 28.4 °F 93% 29.61 in 4.0 mi NE 4.6 mph - N/A   Overcast
2:54 AM 30.2 °F - 28.4 °F 93% 29.62 in 4.0 mi Calm Calm - N/A   Overcast
3:13 AM 28.4 °F 24.6 °F 28.4 °F 100% 29.62 in 4.0 mi NE 3.5 mph - N/A   Overcast
3:33 AM 28.4 °F 24.6 °F 28.4 °F 100% 29.63 in 4.0 mi ENE 3.5 mph - N/A   Overcast
3:54 AM 28.4 °F - 28.4 °F 100% 29.63 in 3.0 mi Calm Calm - N/A   Overcast
4:13 AM 28.4 °F 24.6 °F 28.4 °F 100% 29.63 in 3.0 mi NE 3.5 mph - N/A   Overcast
4:33 AM 28.4 °F 24.6 °F 28.4 °F 100% 29.64 in 3.0 mi NNE 3.5 mph - N/A   Overcast
4:54 AM 28.4 °F 24.6 °F 28.4 °F 100% 29.64 in 3.0 mi NNE 3.5 mph - N/A   Overcast
5:13 AM 28.4 °F 24.6 °F 28.4 °F 100% 29.65 in 2.5 mi NE 3.5 mph - N/A   Overcast
5:33 AM 28.4 °F 23.3 °F 28.4 °F 100% 29.64 in 2.5 mi NE 4.6 mph - N/A   Overcast
5:54 AM 28.4 °F 23.3 °F 28.4 °F 100% 29.64 in 2.0 mi NE 4.6 mph - N/A   Overcast
6:13 AM 28.4 °F 23.3 °F 28.4 °F 100% 29.64 in 2.5 mi NE 4.6 mph - N/A   Overcast
6:34 AM 28.4 °F 22.2 °F 28.4 °F 100% 29.64 in 3.0 mi ENE 5.8 mph - N/A   Overcast
6:53 AM 28.4 °F 23.3 °F 28.4 °F 100% 29.65 in 3.0 mi ENE 4.6 mph - N/A   Overcast
7:13 AM 28.4 °F 22.2 °F 28.4 °F 100% 29.66 in 3.0 mi NE 5.8 mph - N/A   Overcast
7:33 AM 28.4 °F 23.3 °F 28.4 °F 100% 29.67 in 3.0 mi NE 4.6 mph - N/A   Overcast
7:53 AM 28.4 °F 24.6 °F 28.4 °F 100% 29.67 in 2.5 mi NE 3.5 mph - N/A   Overcast
8:13 AM 28.4 °F 24.6 °F 28.4 °F 100% 29.68 in 1.5 mi NE 3.5 mph - N/A   Overcast
8:33 AM 28.4 °F 21.2 °F 28.4 °F 100% 29.68 in 1.5 mi NNE 6.9 mph - N/A   Overcast
8:53 AM 28.4 °F 24.6 °F 28.4 °F 100% 29.69 in 2.0 mi NE 3.5 mph - N/A   Overcast
9:13 AM 28.4 °F 24.6 °F 28.4 °F 100% 29.70 in 2.0 mi NE 3.5 mph - N/A   Overcast
9:33 AM 28.4 °F 24.6 °F 28.4 °F 100% 29.71 in 2.0 mi NE 3.5 mph - N/A   Overcast
9:53 AM 28.4 °F 24.6 °F 28.4 °F 100% 29.71 in 2.0 mi NE 3.5 mph - N/A   Overcast
10:13 AM 28.4 °F 24.6 °F 28.4 °F 100% 29.72 in 1.8 mi NE 3.5 mph - N/A   Overcast
10:33 AM 28.4 °F 23.3 °F 28.4 °F 100% 29.72 in 1.8 mi NE 4.6 mph - N/A   Overcast
10:53 AM 28.4 °F 24.6 °F 28.4 °F 100% 29.72 in 1.8 mi ENE 3.5 mph - N/A   Overcast
11:13 AM 30.2 °F 26.7 °F 30.2 °F 100% 29.72 in 1.8 mi NE 3.5 mph - N/A   Overcast
11:33 AM 30.2 °F 26.7 °F 30.2 °F 100% 29.72 in 2.0 mi ENE 3.5 mph - N/A   Light Freezing Rain
11:53 AM 30.2 °F 26.7 °F 30.2 °F 100% 29.72 in 2.5 mi ENE 3.5 mph - N/A   Overcast
12:13 PM 30.2 °F - 30.2 °F 100% 29.71 in 2.5 mi Calm Calm - N/A   Light Freezing Rain
12:33 PM 30.2 °F 25.4 °F 30.2 °F 100% 29.71 in 1.8 mi NE 4.6 mph - N/A   Light Freezing Rain
12:53 PM 30.2 °F 26.7 °F 30.2 °F 100% 29.71 in 2.0 mi NE 3.5 mph - N/A   Light Freezing Rain
1:13 PM 30.2 °F 26.7 °F 30.2 °F 100% 29.71 in 2.5 mi ENE 3.5 mph - N/A   Light Freezing Rain
1:33 PM 30.2 °F 25.4 °F 30.2 °F 100% 29.71 in 3.0 mi NE 4.6 mph - N/A   Light Freezing Rain
1:53 PM 30.2 °F 25.4 °F 30.2 °F 100% 29.71 in 3.0 mi ENE 4.6 mph - N/A   Light Freezing Rain
2:13 PM 30.2 °F - 30.2 °F 100% 29.71 in 3.0 mi Calm Calm - N/A   Light Freezing Rain
2:33 PM 30.2 °F 25.4 °F 30.2 °F 100% 29.72 in 3.0 mi ENE 4.6 mph - N/A   Light Freezing Rain
2:54 PM 30.2 °F 25.4 °F 30.2 °F 100% 29.71 in 2.5 mi NE 4.6 mph - N/A   Light Freezing Rain
3:13 PM 30.2 °F 25.4 °F 30.2 °F 100% 29.71 in 2.0 mi ENE 4.6 mph - N/A   Light Freezing Rain
3:33 PM 30.2 °F 24.3 °F 30.2 °F 100% 29.73 in 2.5 mi ENE 5.8 mph - N/A   Light Freezing Rain
3:54 PM 30.2 °F 24.3 °F 30.2 °F 100% 29.73 in 2.0 mi ENE 5.8 mph - N/A   Light Freezing Rain
4:13 PM 30.2 °F 23.4 °F 30.2 °F 100% 29.74 in 2.0 mi ENE 6.9 mph - N/A   Light Freezing Rain
4:33 PM 30.2 °F 25.4 °F 30.2 °F 100% 29.75 in 3.0 mi NE 4.6 mph - N/A   Light Freezing Rain
4:54 PM 30.2 °F 24.3 °F 30.2 °F 100% 29.76 in 2.5 mi ENE 5.8 mph - N/A   Light Freezing Rain
5:13 PM 30.2 °F 24.3 °F 28.4 °F 93% 29.76 in 2.5 mi ENE 5.8 mph - N/A   Light Freezing Rain
5:33 PM 28.4 °F 23.3 °F 28.4 °F 100% 29.77 in 3.0 mi ENE 4.6 mph - N/A   Light Freezing Rain
5:54 PM 28.4 °F 21.2 °F 28.4 °F 100% 29.77 in 3.0 mi ENE 6.9 mph - N/A   Light Freezing Rain
6:13 PM 28.4 °F 21.2 °F 28.4 °F 100% 29.78 in 5.0 mi East 6.9 mph - N/A   Light Freezing Rain
6:33 PM 28.4 °F 21.2 °F 28.4 °F 100% 29.78 in 4.0 mi East 6.9 mph - N/A   Light Freezing Rain
6:54 PM 28.4 °F 22.2 °F 28.4 °F 100% 29.78 in 3.0 mi ENE 5.8 mph - N/A   Overcast
7:13 PM 28.4 °F 22.2 °F 26.6 °F 93% 29.78 in 4.0 mi ENE 5.8 mph - N/A Snow Light Snow
7:33 PM 28.4 °F 23.3 °F 26.6 °F 93% 29.78 in 3.0 mi East 4.6 mph - N/A Snow Light Snow
7:54 PM 28.4 °F 22.2 °F 26.6 °F 93% 29.76 in 4.0 mi ENE 5.8 mph - N/A Snow Light Snow
8:13 PM 26.6 °F 19.1 °F 26.6 °F 100% 29.78 in 5.0 mi ENE 6.9 mph - N/A Snow Light Snow
8:33 PM 26.6 °F 21.2 °F 26.6 °F 100% 29.80 in 7.0 mi East 4.6 mph - N/A Snow Light Snow
8:54 PM 26.6 °F 21.2 °F 26.6 °F 100% 29.82 in 10.0 mi ENE 4.6 mph - N/A   Overcast
9:13 PM 26.6 °F 22.6 °F 26.6 °F 100% 29.80 in 10.0 mi ENE 3.5 mph - N/A   Overcast
9:33 PM 26.6 °F 18.2 °F 26.6 °F 100% 29.80 in 10.0 mi ENE 8.1 mph - N/A   Overcast
9:53 PM 26.6 °F 21.2 °F 24.8 °F 93% 29.82 in 10.0 mi ENE 4.6 mph - N/A   Overcast
10:13 PM 26.6 °F 20.0 °F 24.8 °F 93% 29.82 in 10.0 mi East 5.8 mph - N/A   Overcast
10:34 PM 26.6 °F 21.2 °F 24.8 °F 93% 29.81 in 10.0 mi ENE 4.6 mph - N/A   Overcast
10:53 PM 26.6 °F 21.2 °F 24.8 °F 93% 29.80 in 10.0 mi East 4.6 mph - N/A   Overcast
11:13 PM 26.6 °F 19.1 °F 24.8 °F 93% 29.80 in 10.0 mi ENE 6.9 mph - N/A   Overcast
11:34 PM 26.6 °F 21.2 °F 24.8 °F 93% 29.79 in 10.0 mi ENE 4.6 mph - N/A   Overcast
11:53 PM 26.6 °F 21.2 °F 24.8 °F 93% 29.81 in 10.0 mi ENE 4.6 mph - N/A   Overcast